Date String (YYYY-MM-DD hh:mm:ss) UTC,Instrument flags,Ambient pressure (hPa),Sample flow (lpm),Bypass flow (lpm),Sample temperature (°C),Ambient temperature (°C),ASC tube jacket temperature (°C),LED temperature (°C),Box temperature (°C),Sample RH (%),Span deviation,Mass concentration (μg/m³),Mass concentration (μg/m³),Mass concentration (μg/m³)
DateTimeUTC,F1_M11,P_M11,Q1_M11,Q2_M11,T1_M11,T2_M11,T3_M11,T4_M11,T5_M11,U1_M11,ZSPAN_M11,X2_M11,X0_M11,X1_M11
2022-04-17 16:00:00,,0824.0,5.00,0.00,24.2,23.4,00.0,33.0,26.0,12.3,0000.0,0004.59,0016.76,0001.74
2022-04-17 16:01:00,,0824.2,5.01,0.00,24.2,23.4,00.0,33.1,26.0,12.1,0000.0,0004.39,0015.45,0001.50
2022-04-17 16:02:00,,0824.1,5.00,0.00,24.2,23.3,00.0,33.1,26.0,12.1,0000.0,0004.38,0014.51,0001.49
2022-04-17 16:03:00,,0824.1,4.99,0.00,24.2,23.3,00.0,33.1,26.0,12.1,0000.0,0004.49,0016.02,0001.52
2022-04-17 16:04:00,,0824.2,5.00,0.00,24.2,23.4,00.0,33.1,26.0,12.1,0000.0,0004.49,0015.36,0001.54
2022-04-17 16:05:00,,0824.2,5.00,0.00,24.2,23.3,00.0,33.1,26.0,12.1,0000.0,0004.50,0015.71,0001.54
2022-04-17 16:06:00,,0824.2,5.01,0.00,24.2,23.3,00.0,33.1,26.0,12.2,0000.0,0004.58,0016.22,0001.56
2022-04-17 16:07:00,,0824.2,5.00,0.00,24.2,23.4,00.0,33.1,26.0,11.9,0000.0,0004.60,0016.20,0001.56
2022-04-17 16:08:00,,0824.3,5.00,0.00,24.2,23.3,00.0,33.1,26.1,12.0,0000.0,0004.63,0016.37,0001.55
2022-04-17 16:09:00,,0824.3,5.00,0.00,24.3,23.4,00.0,33.2,26.1,12.1,0000.0,0004.62,0016.30,0001.55
2022-04-17 16:10:00,,0824.3,4.99,0.00,24.3,23.4,00.0,33.2,26.1,12.1,0000.0,0004.64,0016.22,0001.54
2022-04-17 16:11:00,,0824.3,5.01,0.00,24.3,23.3,00.0,33.2,26.0,12.1,0000.0,0004.67,0016.44,0001.56
2022-04-17 16:12:00,,0824.3,5.00,0.00,24.3,23.3,00.0,33.2,26.1,12.2,0000.0,0004.78,0016.67,0001.57
2022-04-17 16:13:00,,0824.3,4.99,0.00,24.3,23.3,00.0,33.2,26.1,12.4,0000.0,0004.84,0016.14,0001.60
2022-04-17 16:14:00,,0824.4,5.01,0.00,24.3,23.4,00.0,33.2,26.1,12.4,0000.0,0004.77,0015.26,0001.61
2022-04-17 16:15:00,,0824.3,5.01,0.00,24.3,23.4,00.0,33.2,26.1,12.3,0000.0,0004.79,0014.95,0001.62
2022-04-17 16:16:00,,0824.4,4.99,0.00,24.3,23.4,00.0,33.2,26.1,12.0,0000.0,0004.83,0014.74,0001.65
2022-04-17 16:17:00,,0824.4,5.00,0.00,24.4,23.4,00.0,33.2,26.2,12.2,0000.0,0004.84,0014.55,0001.67
2022-04-17 16:18:00,,0824.4,5.01,0.00,24.4,23.4,00.0,33.2,26.2,12.2,0000.0,0004.82,0015.01,0001.70
2022-04-17 16:19:00,,0824.4,5.00,0.00,24.4,23.4,00.0,33.3,26.3,12.2,0000.0,0004.83,0015.11,0001.71
2022-04-17 16:20:00,,0824.4,5.00,0.00,24.4,23.4,00.0,33.3,26.3,12.2,0000.0,0004.86,0014.99,0001.74
2022-04-17 16:21:00,,0824.4,4.99,0.00,24.4,23.5,00.0,33.3,26.3,12.0,0000.0,0004.83,0014.87,0001.77
2022-04-17 16:22:00,,0824.5,5.00,0.00,24.4,23.5,00.0,33.3,26.3,12.4,0000.0,0004.82,0014.75,0001.77
2022-04-17 16:23:00,,0824.3,5.02,0.00,24.4,23.5,00.0,33.3,26.3,12.3,0000.0,0004.87,0016.59,0001.76
2022-04-17 16:24:00,,0824.4,5.00,0.00,24.4,23.5,00.0,33.3,26.2,12.2,0000.0,0004.94,0018.06,0001.75
2022-04-17 16:25:00,,0824.4,5.00,0.00,24.4,23.5,00.0,33.3,26.2,12.2,0000.0,0005.06,0018.24,0001.76
2022-04-17 16:26:00,,0824.4,5.01,0.00,24.4,23.5,00.0,33.3,26.2,12.3,0000.0,0005.19,0018.40,0001.77
2022-04-17 16:27:00,,0824.4,4.99,0.00,24.4,23.5,00.0,33.3,26.2,12.1,0000.0,0005.34,0018.77,0001.77
2022-04-17 16:28:00,,0824.6,5.00,0.00,24.4,23.5,00.0,33.3,26.2,12.4,0000.0,0005.39,0018.99,0001.77
2022-04-17 16:29:00,,0824.6,5.01,0.00,24.4,23.5,00.0,33.3,26.2,12.5,0000.0,0005.48,0018.91,0001.76
2022-04-17 16:30:00,,0824.6,4.99,0.00,24.4,23.5,00.0,33.3,26.2,12.5,0000.0,0005.57,0019.35,0001.77
2022-04-17 16:31:00,,0824.4,4.99,0.00,24.4,23.4,00.0,33.3,26.2,12.6,0000.0,0005.54,0019.00,0001.76
2022-04-17 16:32:00,,0824.4,5.00,0.00,24.4,23.4,00.0,33.3,26.2,12.6,0000.0,0005.55,0019.24,0001.74
2022-04-17 16:33:00,,0824.5,5.01,0.00,24.4,23.5,00.0,33.3,26.2,12.7,0000.0,0005.55,0020.22,0001.72
2022-04-17 16:34:00,,0824.7,5.00,0.00,24.4,23.5,00.0,33.4,26.3,12.7,0000.0,0005.54,0018.69,0001.73
2022-04-17 16:35:00,,0824.6,4.99,0.00,24.4,23.4,00.0,33.4,26.3,12.9,0000.0,0005.51,0017.26,0001.72
2022-04-17 16:36:00,,0824.5,4.99,0.00,24.5,23.4,00.0,33.4,26.3,13.3,0000.0,0005.41,0016.34,0001.70
2022-04-17 16:37:00,,0824.6,5.01,0.00,24.5,23.4,00.0,33.4,26.3,13.4,0000.0,0005.27,0015.93,0001.68
2022-04-17 16:38:00,,0824.7,5.00,0.00,24.4,23.5,00.0,33.4,26.3,13.2,0000.0,0005.11,0015.55,0001.65
2022-04-17 16:39:00,,0824.6,5.00,0.00,24.5,23.4,00.0,33.4,26.3,13.2,0000.0,0005.04,0016.56,0001.62
2022-04-17 16:40:00,,0824.8,5.01,0.00,24.5,23.4,00.0,33.4,26.3,13.2,0000.0,0004.89,0016.04,0001.60
2022-04-17 16:41:00,,0824.7,5.00,0.00,24.5,23.5,00.0,33.4,26.3,13.2,0000.0,0004.74,0015.42,0001.57
2022-04-17 16:42:00,,0824.5,5.00,0.00,24.5,23.5,00.0,33.4,26.3,13.1,0000.0,0004.76,0015.92,0001.55
2022-04-17 16:43:00,,0824.8,5.01,0.00,24.5,23.5,00.0,33.4,26.3,12.9,0000.0,0004.80,0015.60,0001.54
2022-04-17 16:44:00,,0824.8,4.99,0.00,24.5,23.5,00.0,33.4,26.3,13.1,0000.0,0004.79,0014.59,0001.53
2022-04-17 16:45:00,,0824.7,4.99,0.00,24.5,23.5,00.0,33.4,26.3,13.4,0000.0,0004.72,0014.41,0001.51
2022-04-17 16:46:00,,0824.8,5.02,0.00,24.5,23.5,00.0,33.4,26.3,13.3,0000.0,0004.73,0015.01,0001.52
2022-04-17 16:47:00,,0824.8,4.99,0.00,24.5,23.5,00.0,33.4,26.3,13.5,0000.0,0004.78,0015.83,0001.53
2022-04-17 16:48:00,,0824.9,4.99,0.00,24.5,23.5,00.0,33.4,26.3,13.6,0000.0,0004.78,0015.90,0001.53
2022-04-17 16:49:00,,0824.9,4.99,0.00,24.5,23.5,00.0,33.4,26.3,14.0,0000.0,0004.80,0015.76,0001.52
2022-04-17 16:50:00,,0825.2,5.01,0.00,24.5,23.5,00.0,33.4,26.3,14.2,0000.0,0004.75,0014.65,0001.49
2022-04-17 16:51:00,,0824.9,5.00,0.00,24.5,23.5,00.0,33.5,26.3,14.3,0000.0,0004.78,0015.17,0001.46
2022-04-17 16:52:00,,0825.1,4.99,0.00,24.5,23.5,00.0,33.5,26.3,14.2,0000.0,0004.78,0015.22,0001.41
2022-04-17 16:53:00,,0825.2,4.99,0.00,24.5,23.5,00.0,33.5,26.3,14.7,0000.0,0004.74,0014.66,0001.38
2022-04-17 16:54:00,,0825.2,5.01,0.00,24.5,23.5,00.0,33.5,26.3,14.7,0000.0,0004.67,0014.88,0001.37
2022-04-17 16:55:00,,0825.1,5.00,0.00,24.5,23.5,00.0,33.5,26.3,15.2,0000.0,0004.61,0014.97,0001.35
2022-04-17 16:56:00,,0824.9,5.00,0.00,24.5,23.5,00.0,33.5,26.3,15.5,0000.0,0004.62,0015.28,0001.33
2022-04-17 16:57:00,,0825.0,5.01,0.00,24.5,23.6,00.0,33.5,26.3,15.4,0000.0,0004.55,0015.45,0001.30
2022-04-17 16:58:00,,0825.1,5.00,0.00,24.5,23.6,00.0,33.5,26.3,15.4,0000.0,0004.51,0014.53,0001.27
2022-04-17 16:59:00,,0825.0,5.00,0.00,24.5,23.6,00.0,33.5,26.3,15.9,0000.0,0004.45,0014.24,0001.24
